Cedar Rapids, IA

8:36 PM CDT on August 20, 2017 (GMT -0500)
The Eastern Iowa Airport

Weather History for KCID - August, 2013

Change the Weather History Date:

Monday, August 26, 2013

  Actual Average Record
Temperature  
Mean Temperature 81 °F 70 °F  
Max Temperature 94 °F 81 °F 97 °F (1924)
Min Temperature 67 °F 59 °F 41 °F (1934)
Degree Days  
Heating Degree Days 0 1  
Month to date heating degree days 6 7  
Since 1 June heating degree days 47 40  
Since 1 July heating degree days 19 11  
Cooling Degree Days 16 6  
Month to date cooling degree days 150 175  
Year to date cooling degree days 630 642  
Since 1 June cooling degree days 556 593  
Growing Degree Days 30 (Base 50)    
Moisture  
Dew Point 68 °F    
Average Humidity 67    
Maximum Humidity 87    
Minimum Humidity 46    
Precipitation  
Precipitation 0.00 in 0.14 in 2.19 in (1987)
Month to date precipitation 0.11 3.79  
Year to date precipitation 29.40 24.61  
Sea Level Pressure  
Sea Level Pressure 30.05 in    
Wind  
Wind Speed 7 mph (SSW)    
Max Wind Speed 14 mph    
Max Gust Speed 22 mph    
Visibility 9 miles    
Events      
T = Trace of Precipitation, MM = Missing Value Source: NWS Daily Summary

Daily Weather History Graph

Daily Weather History Graph

Search for Another Location

Airport or City:

Trip Planner

Search our weather history database for the weather conditions in past years. The results will help you decide how hot, cold, wet, or windy it might be!

Date:

Astronomy

Aug. 26, 2013 Rise Set
Actual Time 6:26 AM CDT 7:49 PM CDT
Civil Twilight 5:57 AM CDT 8:18 PM CDT
Nautical Twilight 5:22 AM CDT 8:53 PM CDT
Astronomical Twilight 4:45 AM CDT 9:30 PM CDT
Moon 10:54 PM CDT (8/26) 12:35 PM CDT (8/26)
Length of Visible Light 14h 21m
Length of Day
13h 23m
Waning Gibbous, 66% of the Moon is Illuminated
Aug 26
Waning Gibbous
Aug 28
Last Quarter
Sep 5
New
Sep 12
First Quarter
Sep 19
Full

Hourly Weather History & Observations

Time (CDT) Temp. Heat Index Dew Point Humidity Pressure Visibility Wind Dir Wind Speed Gust Speed Precip Events Conditions
12:52 AM 69.1 °F - 62.1 °F 78% 30.11 in 10.0 mi South 4.6 mph - N/A   Clear
1:52 AM 69.1 °F - 63.0 °F 81% 30.10 in 9.0 mi SSE 5.8 mph - N/A   Clear
2:52 AM 69.1 °F - 63.0 °F 81% 30.10 in 9.0 mi South 3.5 mph - N/A   Clear
3:52 AM 68.0 °F - 63.0 °F 84% 30.09 in 9.0 mi South 5.8 mph - N/A   Clear
4:52 AM 68.0 °F - 63.0 °F 84% 30.09 in 9.0 mi South 5.8 mph - N/A   Clear
5:52 AM 68.0 °F - 63.0 °F 84% 30.10 in 8.0 mi South 5.8 mph - N/A   Clear
6:52 AM 66.9 °F - 63.0 °F 87% 30.11 in 6.0 mi South 4.6 mph - N/A   Clear
7:52 AM 71.1 °F - 66.0 °F 84% 30.12 in 6.0 mi SSW 5.8 mph - N/A   Haze
8:52 AM 77.0 °F - 68.0 °F 74% 30.11 in 7.0 mi SW 8.1 mph - N/A   Clear
9:52 AM 82.0 °F 85.9 °F 70.0 °F 67% 30.11 in 7.0 mi SW 8.1 mph - N/A   Clear
10:52 AM 86.0 °F 91.5 °F 71.1 °F 61% 30.10 in 9.0 mi SW 10.4 mph - N/A   Clear
11:52 AM 89.1 °F 95.0 °F 71.1 °F 55% 30.08 in 10.0 mi SSW 8.1 mph - N/A   Clear
12:52 PM 91.0 °F 97.6 °F 71.1 °F 52% 30.06 in 10.0 mi SW 8.1 mph - N/A   Clear
1:52 PM 91.9 °F 99.5 °F 72.0 °F 52% 30.04 in 10.0 mi SW 9.2 mph - N/A   Clear
2:52 PM 93.0 °F 100.1 °F 71.1 °F 49% 30.01 in 10.0 mi SW 9.2 mph - N/A   Clear
3:52 PM 93.0 °F 97.9 °F 69.1 °F 45% 30.01 in 10.0 mi SW 11.5 mph - N/A   Clear
4:52 PM 93.0 °F 99.0 °F 70.0 °F 47% 30.00 in 10.0 mi SW 9.2 mph - N/A   Scattered Clouds
5:52 PM 91.0 °F 95.6 °F 69.1 °F 48% 29.98 in 10.0 mi SSW 9.2 mph - N/A   Clear
6:52 PM 88.0 °F 93.8 °F 71.1 °F 57% 29.97 in 9.0 mi South 5.8 mph - N/A   Clear
7:52 PM 82.0 °F 86.3 °F 71.1 °F 69% 29.96 in 8.0 mi South 5.8 mph - N/A   Clear
8:52 PM 80.1 °F 83.2 °F 70.0 °F 71% 29.96 in 9.0 mi South 4.6 mph - N/A   Clear
9:52 PM 78.1 °F - 69.1 °F 74% 29.96 in 7.0 mi South 4.6 mph - N/A   Clear
10:52 PM 75.9 °F - 68.0 °F 76% 29.96 in 9.0 mi South 4.6 mph - N/A   Clear
11:52 PM 78.1 °F - 66.9 °F 68% 29.96 in 10.0 mi SW 6.9 mph - N/A   Clear